TimePDT,TemperatureF,Dew PointF,Humidity,Sea Level PressureIn,VisibilityMPH,Wind Direction,Wind SpeedMPH,Gust SpeedMPH,PrecipitationIn,Events,Conditions,WindDirDegrees,DateUTC
12:53 AM,86.0,32.0,14,29.83,10.0,Calm,Calm,-,N/A,,Clear,0,2013-07-17 07:53:00
1:53 AM,82.9,34.0,17,29.83,10.0,West,3.5,-,N/A,,Clear,270,2013-07-17 08:53:00
2:53 AM,82.0,33.1,17,29.83,10.0,West,3.5,-,N/A,,Clear,280,2013-07-17 09:53:00
3:53 AM,80.1,35.1,20,29.83,10.0,West,4.6,-,N/A,,Clear,270,2013-07-17 10:53:00
4:53 AM,80.1,39.9,24,29.84,10.0,ENE,5.8,-,N/A,,Clear,60,2013-07-17 11:53:00
5:53 AM,80.1,39.0,23,29.86,10.0,Calm,Calm,-,N/A,,Clear,0,2013-07-17 12:53:00
6:53 AM,84.0,34.0,17,29.88,10.0,Calm,Calm,-,N/A,,Clear,0,2013-07-17 13:53:00
7:53 AM,89.1,24.1,9,29.90,10.0,Calm,Calm,-,N/A,,Clear,0,2013-07-17 14:53:00
8:53 AM,93.0,21.9,8,29.91,10.0,NW,3.5,-,N/A,,Clear,310,2013-07-17 15:53:00
9:53 AM,96.1,23.0,7,29.91,10.0,NNW,3.5,-,N/A,,Clear,340,2013-07-17 16:53:00
10:53 AM,98.1,32.0,10,29.90,10.0,Variable,3.5,-,N/A,,Clear,0,2013-07-17 17:53:00
11:53 AM,100.9,43.0,14,29.89,10.0,East,4.6,-,N/A,,Clear,80,2013-07-17 18:53:00
12:53 PM,102.9,46.9,15,29.87,10.0,Variable,5.8,-,N/A,,Clear,0,2013-07-17 19:53:00
1:53 PM,104.0,48.9,16,29.85,10.0,Variable,4.6,-,N/A,,Clear,0,2013-07-17 20:53:00
2:53 PM,105.1,50.0,16,29.82,10.0,ENE,6.9,-,N/A,,Clear,70,2013-07-17 21:53:00
3:53 PM,105.1,51.1,16,29.80,10.0,Variable,3.5,-,N/A,,Partly Cloudy,0,2013-07-17 22:53:00
4:53 PM,107.1,50.0,15,29.77,10.0,ENE,5.8,-,N/A,,Partly Cloudy,60,2013-07-17 23:53:00
5:53 PM,106.0,51.1,16,29.76,10.0,East,4.6,-,N/A,,Clear,80,2013-07-18 00:53:00
6:53 PM,105.1,46.9,14,29.76,10.0,East,3.5,-,N/A,,Clear,90,2013-07-18 01:53:00
7:53 PM,104.0,48.0,15,29.77,10.0,Calm,Calm,-,N/A,,Partly Cloudy,0,2013-07-18 02:53:00
8:53 PM,93.0,59.0,32,29.77,10.0,Calm,Calm,-,N/A,,Clear,0,2013-07-18 03:53:00
9:53 PM,91.9,51.1,25,29.79,10.0,NNW,5.8,-,N/A,,Clear,330,2013-07-18 04:53:00
10:53 PM,89.1,48.9,25,29.80,10.0,WSW,8.1,-,N/A,,Clear,250,2013-07-18 05:53:00
11:53 PM,86.0,46.0,25,29.81,10.0,WSW,5.8,-,N/A,,Clear,250,2013-07-18 06:53:00